Location: ?????
(33.6267°N, 35.4675°E)
Time: 20:47:13
(UTC+00:00)

Cosmos 1980 Rocket - Pass Details

Date: 12 November 2019
Orbit: 828 x 851 km, 71.0° (Epoch: 12 December)

Event Time Altitude Azimuth Distance (km) Brightness Sun altitude
Rises 17:37:02 0° 224° (SW) 3,375 5.8 -37.5°
Reaches altitude 10° 17:39:42 10° 234° (SW) 2,449 5.1 -38.0°
Enters shadow 17:42:59 28° 264° (W) 1,547 4.0 -38.7°
